• In Russia
  • List of Countries
  • For 7 days
  • Water Temperature
  • Satellite Maps
  • Weather Map
  • Weather Widgets
  • user-avatar
    Login

    Hourly Weather Plodovyy

    Today, 25 September, Tuesday

    Time Temperature Precipitation Wind Pressure Humidity
    00:00 +11°C° 0 mm 4 mps 739 mmHg 65%
    01:00 +10°C° 0 mm 5 mps 738 mmHg 63%
    02:00 +10°C° 0 mm 5 mps 738 mmHg 61%
    03:00 +10°C° 0 mm 5 mps 737 mmHg 61%
    04:00 +10°C° 0.1 mm 6 mps 736 mmHg 61%
    05:00 +10°C° 0.1 mm 6 mps 736 mmHg 61%
    06:00 +10°C° 0.1 mm 7 mps 735 mmHg 61%
    07:00 +10°C° 1 mm 7 mps 735 mmHg 66%
    08:00 +10°C° 1 mm 6 mps 735 mmHg 72%
    09:00 +10°C° 1 mm 6 mps 735 mmHg 78%
    10:00 +10°C° 1.6 mm 6 mps 735 mmHg 82%
    11:00 +12°C° 1.6 mm 5 mps 735 mmHg 85%
    12:00 +12°C° 1.6 mm 5 mps 735 mmHg 89%
    13:00 +12°C° 1.9 mm 5 mps 735 mmHg 88%
    14:00 +12°C° 1.9 mm 5 mps 736 mmHg 88%
    15:00 +12°C° 1.9 mm 4 mps 736 mmHg 87%
    16:00 +11°C° 0.3 mm 4 mps 736 mmHg 85%
    17:00 +11°C° 0.3 mm 4 mps 737 mmHg 83%
    18:00 +10°C° 0.3 mm 4 mps 737 mmHg 81%
    19:00 +10°C° 0 mm 3 mps 738 mmHg 82%
    20:00 +9°C° 0 mm 3 mps 738 mmHg 83%
    21:00 +9°C° 0 mm 3 mps 739 mmHg 83%
    22:00 +8°C° 0 mm 3 mps 739 mmHg 85%
    23:00 +8°C° 0 mm 3 mps 740 mmHg 87%

    Tomorrow, 26 September, Wednesday

    Time Temperature Precipitation Wind Pressure Humidity
    00:00 +7°C° 0 mm 3 mps 740 mmHg 89%
    01:00 +7°C° 0 mm 3 mps 741 mmHg 90%
    02:00 +5°C° 0 mm 3 mps 741 mmHg 91%
    03:00 +5°C° 0 mm 3 mps 742 mmHg 93%
    04:00 +5°C° 0 mm 3 mps 742 mmHg 93%
    05:00 +4°C° 0 mm 3 mps 743 mmHg 93%
    06:00 +4°C° 0 mm 3 mps 743 mmHg 94%
    07:00 +5°C° 0 mm 3 mps 744 mmHg 88%
    08:00 +6°C° 0 mm 4 mps 744 mmHg 82%
    09:00 +7°C° 0 mm 4 mps 745 mmHg 77%
    10:00 +8°C° 0 mm 4 mps 745 mmHg 72%
    11:00 +10°C° 0 mm 4 mps 745 mmHg 67%
    12:00 +11°C° 0 mm 4 mps 746 mmHg 62%
    13:00 +11°C° 0 mm 4 mps 746 mmHg 60%
    14:00 +11°C° 0 mm 4 mps 746 mmHg 59%
    15:00 +11°C° 0 mm 4 mps 746 mmHg 57%
    16:00 +10°C° 0 mm 3 mps 747 mmHg 60%
    17:00 +10°C° 0 mm 3 mps 747 mmHg 64%
    18:00 +9°C° 0 mm 2 mps 747 mmHg 67%
    19:00 +8°C° 0 mm 2 mps 747 mmHg 69%
    20:00 +7°C° 0 mm 2 mps 748 mmHg 71%
    21:00 +7°C° 0 mm 2 mps 748 mmHg 72%
    22:00 +6°C° 0 mm 2 mps 748 mmHg 74%
    23:00 +6°C° 0 mm 2 mps 748 mmHg 76%

    Day after tomorrow, 27 September, Thursday

    Time Temperature Precipitation Wind Pressure Humidity
    00:00 +5°C° 0 mm 2 mps 748 mmHg 77%
    01:00 +4°C° 0 mm 3 mps 747 mmHg 78%
    02:00 +4°C° 0 mm 3 mps 747 mmHg 79%
    03:00 +3°C° 0 mm 3 mps 747 mmHg 80%
    04:00 +3°C° 0 mm 4 mps 746 mmHg 80%
    05:00 +3°C° 0 mm 4 mps 746 mmHg 80%
    06:00 +3°C° 0 mm 4 mps 746 mmHg 81%
    07:00 +3°C° 0 mm 6 mps 745 mmHg 73%
    08:00 +5°C° 0 mm 7 mps 745 mmHg 66%
    09:00 +6°C° 0 mm 8 mps 744 mmHg 58%
    10:00 +6°C° 0 mm 8 mps 744 mmHg 57%
    11:00 +6°C° 0 mm 9 mps 743 mmHg 55%
    12:00 +7°C° 0 mm 9 mps 742 mmHg 54%
    13:00 +6°C° 0.4 mm 10 mps 742 mmHg 58%
    14:00 +6°C° 0.4 mm 10 mps 741 mmHg 62%
    15:00 +5°C° 0.4 mm 10 mps 741 mmHg 66%
    16:00 +5°C° 0.4 mm 10 mps 740 mmHg 69%
    17:00 +5°C° 0.4 mm 10 mps 739 mmHg 72%
    18:00 +5°C° 0.4 mm 9 mps 739 mmHg 76%
    19:00 +5°C° 0.5 mm 9 mps 739 mmHg 78%
    20:00 +5°C° 0.5 mm 9 mps 739 mmHg 81%
    21:00 +6°C° 0.5 mm 9 mps 738 mmHg 83%
    22:00 +6°C° 0.1 mm 8 mps 738 mmHg 84%
    23:00 +6°C° 0.1 mm 7 mps 739 mmHg 86%

    28 September, Friday

    Time Temperature Precipitation Wind Pressure Humidity
    00:00 +6°C° 0.1 mm 7 mps 739 mmHg 87%
    01:00 +7°C° 0 mm 6 mps 739 mmHg 89%
    02:00 +6°C° 0 mm 5 mps 739 mmHg 91%
    03:00 +6°C° 0 mm 5 mps 740 mmHg 93%
    04:00 +5°C° 0 mm 5 mps 740 mmHg 93%
    05:00 +5°C° 0 mm 5 mps 740 mmHg 94%
    06:00 +5°C° 0 mm 4 mps 741 mmHg 94%
    07:00 +6°C° 0 mm 5 mps 741 mmHg 87%
    08:00 +7°C° 0 mm 5 mps 741 mmHg 80%
    09:00 +9°C° 0 mm 6 mps 742 mmHg 72%
    10:00 +10°C° 0 mm 6 mps 742 mmHg 65%
    11:00 +11°C° 0 mm 6 mps 742 mmHg 58%
    12:00 +12°C° 0 mm 7 mps 742 mmHg 51%
    13:00 +13°C° 0 mm 6 mps 742 mmHg 50%
    14:00 +14°C° 0 mm 6 mps 741 mmHg 49%
    15:00 +14°C° 0 mm 6 mps 741 mmHg 47%
    16:00 +13°C° 0 mm 6 mps 740 mmHg 51%
    17:00 +11°C° 0 mm 6 mps 740 mmHg 55%
    18:00 +12°C° 0 mm 5 mps 740 mmHg 58%
    19:00 +11°C° 0 mm 6 mps 740 mmHg 62%
    20:00 +11°C° 0 mm 7 mps 739 mmHg 66%
    21:00 +11°C° 0 mm 7 mps 739 mmHg 69%
    22:00 +11°C° 0 mm 8 mps 739 mmHg 73%
    23:00 +11°C° 0 mm 8 mps 738 mmHg 76%

    29 September, Saturday

    Time Temperature Precipitation Wind Pressure Humidity
    00:00 +12°C° 0 mm 8 mps 738 mmHg 79%
    01:00 +12°C° 0 mm 8 mps 738 mmHg 80%
    02:00 +12°C° 0 mm 8 mps 738 mmHg 82%
    03:00 +12°C° 0 mm 7 mps 738 mmHg 83%
    04:00 +12°C° 0 mm 7 mps 739 mmHg 83%
    05:00 +11°C° 0 mm 6 mps 740 mmHg 83%
    06:00 +12°C° 0 mm 5 mps 740 mmHg 83%
    07:00 +10°C° 0 mm 5 mps 741 mmHg 79%
    08:00 +11°C° 0 mm 4 mps 742 mmHg 76%
    09:00 +10°C° 0 mm 4 mps 742 mmHg 72%
    10:00 +11°C° 0 mm 4 mps 743 mmHg 68%
    11:00 +11°C° 0 mm 3 mps 743 mmHg 63%
    12:00 +11°C° 0 mm 3 mps 744 mmHg 59%
    13:00 +11°C° 0 mm 3 mps 744 mmHg 56%
    14:00 +11°C° 0 mm 3 mps 744 mmHg 53%
    15:00 +11°C° 0 mm 3 mps 744 mmHg 51%
    16:00 +12°C° 0.1 mm 2 mps 745 mmHg 53%
    17:00 +10°C° 0.1 mm 2 mps 745 mmHg 55%
    18:00 +10°C° 0.1 mm 2 mps 745 mmHg 57%
    19:00 +9°C° 0.1 mm 2 mps 746 mmHg 58%
    20:00 +9°C° 0.1 mm 3 mps 746 mmHg 58%
    21:00 +8°C° 0.1 mm 3 mps 746 mmHg 59%
    22:00 +8°C° 0.1 mm 3 mps 747 mmHg 59%
    23:00 +8°C° 0.1 mm 3 mps 747 mmHg 59%

    30 September, Sunday

    Time Temperature Precipitation Wind Pressure Humidity
    00:00 +6°C° 0.1 mm 4 mps 747 mmHg 58%
    01:00 +6°C° 0.1 mm 4 mps 748 mmHg 59%
    02:00 +6°C° 0.1 mm 4 mps 748 mmHg 59%
    03:00 +6°C° 0.1 mm 4 mps 748 mmHg 60%
    04:00 +5°C° 0 mm 3 mps 749 mmHg 62%
    05:00 +4°C° 0 mm 3 mps 749 mmHg 64%
    06:00 +4°C° 0 mm 3 mps 749 mmHg 66%
    07:00 +5°C° 0 mm 3 mps 749 mmHg 61%
    08:00 +5°C° 0 mm 3 mps 750 mmHg 57%
    09:00 +6°C° 0 mm 4 mps 750 mmHg 52%
    10:00 +8°C° 0 mm 3 mps 750 mmHg 47%
    11:00 +9°C° 0 mm 3 mps 750 mmHg 43%
    12:00 +10°C° 0 mm 3 mps 750 mmHg 38%
    13:00 +10°C° 0 mm 3 mps 750 mmHg 37%
    14:00 +11°C° 0 mm 3 mps 750 mmHg 37%
    15:00 +11°C° 0 mm 3 mps 750 mmHg 36%
    16:00 +10°C° 0 mm 2 mps 749 mmHg 40%
    17:00 +9°C° 0 mm 2 mps 749 mmHg 44%
    18:00 +7°C° 0 mm 2 mps 749 mmHg 48%
    19:00 +7°C° 0 mm 2 mps 749 mmHg 49%
    20:00 +6°C° 0 mm 2 mps 750 mmHg 51%
    21:00 +6°C° 0 mm 2 mps 750 mmHg 52%
    22:00 +5°C° 0 mm 2 mps 750 mmHg 54%
    23:00 +5°C° 0 mm 2 mps 750 mmHg 55%
    Show more